Погода Моржовец Остров

Погода Моржовец Остров : погода сейчас, прогноз погоды и архив. Всё, что Вы хотите узнать о погоде Моржовец Остров!

Поиск расширенной информации на нашем сайте:

Другие новости

Новости СМИ2

Главная страница сайта

Новости сайта

03.07.2017

Напоминаем, что на нашем специализированном сайте Метеоцентр.Азия вы можете получить высокодетализированные автоматические прогнозы погоды по пунктам России, СНГ и мира в авиационном формате (включающие направление и скорость ветра, видимость, явления погоды, количество и форму облачности, нижнюю и верхнюю границу облачности).


Погода Моржовец Остров - сегодня

Время (UTC), дата Ветер
(°,м/с) 
Видим.   Явления Облачность Т
(°С)
Тd
(°С)
f(%) Тe
(°С)
Pmin
(гПа)
dP
(гПа)
Po
(мм)
O2
(г/м3)
Тmin Tmax R s Состояние
почвы
06 12.12.17 190 (Ю) 10  н/о    н/о 
-1.9 -2.6 95 -7  1012.7  -0.2  758  308           
09 12.12.17 170 (Ю) 11{14}  н/о    н/о 
-1.7 -2.3 96 -7  1012.3  -0.4  758  308           
12 12.12.17 160 (Ю) 13{16}  н/о    н/о 
-1.9 -2.6 95 -8  1010.9  -1.3  757  307           
15 12.12.17 170 (Ю) 12{16}  н/о    н/о 
-1.8 -2.4 96 -8  1010.7  -0.1  757  307           
18 12.12.17 170 (Ю) 12{17}  н/о    н/о 
-1.8 -2.8 93 -8  1009.8  -1.1  756  307           
21 12.12.17 160 (Ю) 12{16}  н/о    н/о 
-2.1 -2.9 94 -8  1006.7  -2.8  754  306           
00 13.12.17 160 (Ю) 14{18}  н/о    н/о 
-2.5 -3.5 93 -9  1002.4  -4.3  750  306           
03 13.12.17 160 (Ю) 14{20}  н/о    н/о 
-2.3 -3.4 92 -9  997.8  -4.3  747  304           
06 13.12.17 160 (Ю) 18{22}  н/о    н/о 
-2.7 -3 98 -10  993.6  -4.4  744  303           
09 13.12.17 150 (ЮВ) 18{23}  н/о    н/о 
-2.9 -3.3 97 -10  990.1  -3.7  741  302           
15 13.12.17 160 (Ю) 13{19}  н/о    н/о 
-1.5 -1.4 100 -8  984  -3.1  737  299           
18 13.12.17 230 (ЮЗ) 13{18}  н/о    н/о 
+0.1 +0.2 100 -6  984.4  0.1  737  297           
21 13.12.17 220 (ЮЗ) 16{21}  н/о    н/о 
-1 -1.8 94 -8  986.4  738  299           
00 14.12.17 230 (ЮЗ) 17{24}  н/о    н/о 
-1.3 -2.3 93 -8  988.7  2.1  740  300           
03 14.12.17 210 (ЮЗ) 17{23}  н/о    н/о 
-1.8 -1.8 100 -9  990.1  1.5  741  301           
06 14.12.17 210 (ЮЗ) 15{20}  н/о    н/о 
-1.3 -1.2 100 -8  992  1.8  743  301           
09 14.12.17 230 (ЮЗ) 15{23}  н/о    н/о 
+0.1 -0.6 95 -6  993.8  1.7  744  300           
12 14.12.17 250 (З) 17{24}  н/о    н/о 
+0.2 -0.8 93 -6  996.1  2.1  746  300           
15 14.12.17 230 (ЮЗ) 14{20}  н/о    н/о 
+1.1 +0.4 95 -4  998.6  2.6  748  300           
21 14.12.17 220 (ЮЗ) 12{18}  н/о    н/о 
+0.9 -0.3 92 -4  1002.9  1.7  751  302           
03 15.12.17 200 (Ю) 10  н/о    н/о 
-0.7 -1.7 93 -6  1005.2  0.8  752  304           
06 15.12.17 200 (Ю) 9{13}  н/о    н/о 
-1.2 -2.2 93 -6  1006.6  1.4  754  305           
09 15.12.17 200 (Ю) н/о    н/о 
-1.4 -2.5 92 -6  1007.3  0.6  754  306           
15 15.12.17 160 (Ю) н/о    н/о 
-3.4 -6 82 -8  1007.5  -0.3  754  308           
18 15.12.17 150 (ЮВ) н/о    н/о 
-4.3 -5.1 94 -9  1006.4  -0.9  753  309           
Время (UTC), дата Ветер
(°,м/с) 
Видим.   Явления Облачность Т
(°С)
Тd
(°С)
f(%) Тe
(°С)
Pmin
(гПа)
dP
(гПа)
Po
(мм)
O2
(г/м3)
Тmin Tmax R s Состояние
почвы

Для получения пояснительной информации подведите курсор к названию столбца.

ПОГОДА Моржовец Остров - архив

Всё, что Вы хотите узнать о погоде Моржовец Остров - удобно и подробно!

Выберите нужную дату (начиная с 1 января 2015* года) и нажмите кнопку "Найти".
Будут отображены архивные сводки погоды по пункту Моржовец Остров, начиная с указанной даты.


Отображать данные в формате CSV (для использования в таблицах Excel)


Внимание! Наш архив погоды предназначен исключительно для личного некоммерческого использования в познавательных целях. Если Вам необходимы официальные справки о состоянии погоды (для производственных, юридических, коммерческих и т.п. целей), обращайтесь в органы Росгидромета.

*Примечание: данная дата относится к архиву по метеостанциям СССР (Россия, СНГ, Балтия).
Архив по метеостанциям Зарубежной Европы и Азии (кроме Китая) хранится 10 дней, по другим регионам земного шара (Китай, Африка, Америка, Австралия, Океания) - 1 день.

Моржовец Остров - район местоположения метеостанции


Название, широта, долгота, высота метеостанции:
Моржовец Остров 66.8°ш. 42.6°д. 15 м над ур. моря [Российская Федерация]

Дополнительная информация

В oтличие oт бoльшинства пoгoдных сайтoв мы публикуем пoдрoбную метеoинфoрмацию в детальнoм прoфессиoнальнoм фoрмате.

Характеристики температуры и влажнoсти вoздуха измеряются на высoте 2 м в тени вдали oт зданий и деревьев.
Скoрoсть ветра измеряется на высoте 10 м (на урoвне рoста челoвека скoрoсть ветра ниже в 1.5-2 раза). Если метеoстанция нахoдится в гoрoде или в лесу, тo скoрoсть ветра занижена на 2-4 м/с пo сравнению с oткрытым местoм. Скoрoсть ветра над акватoриями крупных рек и oзёр, а также на вершинах хoлмoв на 2-5 м/с выше, чем в oбычных услoвиях.
Атмoсфернoе давление в разных тoчках местнoсти мoжет значительнo oтличаться oт давления на метеoстанции, в зависимoсти oт услoвий рельефа (при пoдъёме на 10 м давление пoнижается примернo на 1 мм рт.ст.).